Weather in Pogibi

Russia / Sakhalin District     52°13′18″N   141°53′09″E
temp.,
°C
wind,
m/s
gust,
m/s
humid.,
%
clouds,
%
prec.,
mm/h
press.,
hPa
HPBL,
m
18 may, tue
tue1823:00+7sse49725 0.0 1000152
02:00+7ssw6177941 0.2 1000390
05:00+4ssw511898 0.3 1001263
08:00+6sw228228 0.0 1002222
11:00+11ssw12658 0.0 1001643
14:00+12wnw5461100 0.0 1001586
17:00+13nw225912 0.0 1000591
20:00+6wsw448298 0.1 1002225
19 may, wed
wed1923:00+5ssw2495100 1.9 1003247
02:00+6s3593100 0.8 1002315
05:00+5sw3696100 3.0 1003317
08:00+5wsw239599 0.8 1004188
11:00+10sw4483100 0.8 1004422
14:00+12ssw4475100 0.1 1005510
17:00+11s338299 0.1 1005357
20:00+11s468357 0.0 1006435
20 may, thu
thu2023:00+6ssw469699 0.3 1008241
02:00+6sse1196100 0.1 1010140
05:00+6s129698 0.1 101078
08:00+8s458896 0.0 1010386
11:00+11s688090 0.0 1008590
14:00+15ssw111666100 0.0 1004912
17:00+10ssw101982100 0.0 1004604
20:00+8ssw112090100 0.0 1003514
21 may, fri
fri2123:00+7ssw91696100 0.3 1004426
02:00+5ssw5997100 0.0 1004340
05:00+4nne5892100 0.3 1004305
08:00+3n71189100 0.1 1006447
11:00+3n7108331 0.4 1007510
14:00+10nnw576017 0.0 1008938
17:00+11nnw610545 0.0 1008896
20:00+7n69737 0.0 1010447
22 may, sat
sat2223:00+3n228855 0.0 101213
02:00+2ssw33913 0.0 101332
05:00+2ssw22862 0.0 101310
08:00+6ssw33665 0.0 1014175
11:00+13wsw33443 0.0 1013747
14:00+16wnw33320 0.0 10131617
17:00+17wnw21281 0.0 10111734
20:00+14ene13455 0.0 1011245